Tracking 20228 objects as of 17-Jan-2020
HD Live streaming from Space Station
objects crossing your sky now

FENGYUN 1C DEB

Track FENGYUN 1C DEB now!
10-day predictions


NORAD ID: 30411
Int'l Code: 1999-025AEA
Perigee: 815.7 km
Apogee: 1,029.3 km
Inclination: 98.5 °
Period: 103.3 minutes
Semi major axis: 7293 km
RCS: 0.03 m2 (small)
Launch date: May 10, 1999
Source: People's Republic of China (PRC)
Launch site: Taiyaun Space Center, China (TSC)

Note: This is SATELLITE DEBRIS
aabbcc
Your satellite tracking list
Your tracking list is empty




NASA's NSSDC Master Catalog

Two Line Element Set (TLE):
1 30411U 99025AEA 20016.57458087 +.00000511 +00000-0 +38221-3 0  9993
2 30411 098.5243 046.6170 0146370 011.5520 348.8942 13.93794460658408
Source of the keplerian elements: AFSPC